Вернуться в каталог

CZ-6A DEB

АктивенPO
NORAD 64661·DEBRIS·🇨🇳 China

Запущен Aug 6, 2024 с Taiyuan Satellite Launch Center

Loading…

Ближайшие Пролёты (ближайшие 24 часа)

TLE

СвежийSource: Space-Track

Эпоха: Sep 13, 2026, 23:43 UTC

1 64661U 24140AFB 26256.98859025  .00001059  00000-0  45831-3 0  9990
2 64661  88.9886 263.7086 0038822 231.7382 128.0315 14.23300279 97291

Отслеживайте CZ-6A DEB в реальном времени с AllMySat

Download on the App Store